| time (UTC) | temp C | wind direction | speed KPH | gust KPH | rain 1hr cm | rain 24hr cm | rain mn cm | humidity % | barometer mb |
| 20260502160903 | 12 | 275 | 1.6 | 4.8 | 0.23 | 0.25 | 0.25 | 86 | 1013.6 |
| 20260502152018 | 15 | 279 | 3.2 | 4.8 | 0.00 | 0.05 | 0.03 | 71 | 1013.5 |
| 20260502150903 | 15 | 277 | 1.6 | 3.2 | 0.00 | 0.05 | 0.03 | 68 | 1013.6 |
| 20260502123603 | 15 | 257 | 3.2 | 8.0 | 0.00 | 0.15 | 0.03 | 65 | 1015.7 |
| 20260502122703 | 15 | 224 | 4.8 | 8.0 | 0.00 | 0.15 | 0.03 | 65 | 1015.8 |
| 20260502122017 | 15 | 196 | 6.4 | 9.7 | 0.00 | 0.15 | 0.03 | 65 | 1015.9 |
| 20260502120903 | 15 | 286 | 6.4 | 9.7 | 0.00 | 0.15 | 0.03 | 65 | 1016.1 |
| 20260502115617 | 15 | 126 | 6.4 | 9.7 | 0.00 | 0.15 | 0.03 | 66 | 1016.2 |
| 20260502114717 | 15 | 113 | 4.8 | 9.7 | 0.00 | 0.15 | 0.03 | 68 | 1016.3 |
| 20260502113603 | 15 | 144 | 4.8 | 6.4 | 0.00 | 0.15 | 0.03 | 70 | 1016.4 |
| 20260502112703 | 14 | 129 | 8.0 | 12.9 | 0.00 | 0.15 | 0.03 | 71 | 1016.6 |
| 20260502111803 | 14 | 188 | 6.4 | 9.7 | 0.00 | 0.15 | 0.03 | 73 | 1016.8 |
| 20260502110903 | 14 | 157 | 8.0 | 12.9 | 0.00 | 0.15 | 0.03 | 74 | 1016.9 |
| 20260502110003 | 14 | 137 | 8.0 | 11.3 | 0.00 | 0.15 | 0.03 | 73 | 1017.0 |
| 20260502105403 | 14 | 135 | 8.0 | 14.5 | 0.00 | 0.15 | 0.03 | 74 | 1017.2 |
| 20260502104718 | 14 | 164 | 8.0 | 14.5 | 0.00 | 0.15 | 0.03 | 73 | 1017.2 |
| 20260502103603 | 14 | 131 | 4.8 | 8.0 | 0.00 | 0.15 | 0.03 | 71 | 1017.1 |
| 20260502102703 | 14 | 133 | 6.4 | 11.3 | 0.00 | 0.15 | 0.03 | 71 | 1017.1 |
| 20260502101803 | 14 | 143 | 9.7 | 14.5 | 0.00 | 0.15 | 0.03 | 72 | 1017.3 |
| 20260502100903 | 14 | 172 | 6.4 | 14.5 | 0.00 | 0.15 | 0.03 | 72 | 1017.4 |
| 20260502091117 | 13 | 140 | 3.2 | 6.4 | 0.00 | 0.15 | 0.03 | 79 | 1017.7 |
| 20260502070903 | 9 | 106 | 0.0 | 0.0 | 0.00 | 0.15 | 0.03 | 90 | 1018.3 |
| 20260502070003 | 9 | 110 | 0.0 | 0.0 | 0.00 | 0.15 | 0.03 | 91 | 1018.2 |
| 20260502065617 | 9 | 0 | 0.0 | 0.0 | 0.00 | 0.15 | 0.03 | 91 | 1018.2 |
| 20260502064504 | 8 | 108 | 0.0 | 1.6 | 0.00 | 0.15 | 0.03 | 92 | 1018.3 |
| 20260502063603 | 8 | 106 | 0.0 | 1.6 | 0.00 | 0.15 | 0.03 | 93 | 1018.3 |
| 20260502062703 | 8 | 0 | 0.0 | 0.0 | 0.00 | 0.15 | 0.03 | 92 | 1018.4 |
| 20260502061803 | 7 | 112 | 0.0 | 0.0 | 0.00 | 0.15 | 0.03 | 92 | 1018.5 |
| 20260502060903 | 7 | 120 | 1.6 | 1.6 | 0.00 | 0.15 | 0.03 | 92 | 1018.5 |
| 20260502060003 | 7 | 127 | 0.0 | 1.6 | 0.00 | 0.15 | 0.03 | 92 | 1018.5 |
| 20260502055403 | 7 | 0 | 0.0 | 0.0 | 0.00 | 0.15 | 0.03 | 92 | 1018.4 |
| 20260502054718 | 7 | 0 | 0.0 | 0.0 | 0.00 | 0.15 | 0.03 | 92 | 1018.4 |
| 20260502053818 | 7 | 129 | 0.0 | 0.0 | 0.00 | 0.15 | 0.03 | 92 | 1018.3 |
| 20260502052703 | 6 | 114 | 1.6 | 3.2 | 0.00 | 0.15 | 0.03 | 92 | 1018.4 |
| 20260502052016 | 6 | 24 | 0.0 | 0.0 | 0.00 | 0.15 | 0.03 | 92 | 1018.4 |
| 20260502051118 | 6 | 26 | 0.0 | 1.6 | 0.00 | 0.15 | 0.03 | 92 | 1018.2 |
| 20260502050003 | 6 | 0 | 0.0 | 0.0 | 0.00 | 0.15 | 0.03 | 92 | 1018.2 |
| 20260502045403 | 7 | 95 | 0.0 | 0.0 | 0.00 | 0.15 | 0.03 | 92 | 1018.2 |
| 20260502044503 | 7 | 96 | 0.0 | 1.6 | 0.00 | 0.15 | 0.03 | 92 | 1018.3 |
| 20260502043603 | 7 | 74 | 1.6 | 1.6 | 0.00 | 0.15 | 0.03 | 92 | 1018.2 |
| 20260502042917 | 7 | 317 | 1.6 | 1.6 | 0.00 | 0.15 | 0.03 | 92 | 1018.3 |
| 20260502041803 | 7 | 308 | 1.6 | 4.8 | 0.00 | 0.15 | 0.03 | 91 | 1018.3 |
| 20260502040903 | 7 | 287 | 3.2 | 4.8 | 0.00 | 0.15 | 0.03 | 91 | 1018.4 |
| 20260502040003 | 7 | 286 | 1.6 | 3.2 | 0.00 | 0.15 | 0.03 | 91 | 1018.6 |
| 20260502035403 | 7 | 281 | 3.2 | 4.8 | 0.03 | 0.15 | 0.03 | 91 | 1018.7 |
| 20260502034718 | 7 | 282 | 1.6 | 3.2 | 0.03 | 0.15 | 0.03 | 91 | 1018.8 |
| 20260502033603 | 7 | 276 | 3.2 | 6.4 | 0.03 | 0.15 | 0.03 | 90 | 1018.8 |
| 20260502032703 | 7 | 275 | 1.6 | 4.8 | 0.03 | 0.15 | 0.03 | 90 | 1018.8 |
| 20260502031803 | 7 | 255 | 3.2 | 4.8 | 0.03 | 0.15 | 0.03 | 90 | 1018.8 |
| 20260502031117 | 7 | 277 | 1.6 | 4.8 | 0.03 | 0.15 | 0.03 | 90 | 1018.9 |
| 20260502030003 | 7 | 281 | 0.0 | 1.6 | 0.03 | 0.15 | 0.03 | 90 | 1018.8 |
| 20260502025403 | 8 | 269 | 1.6 | 4.8 | 0.00 | 0.15 | 0.00 | 90 | 1018.8 |
| 20260502024717 | 8 | 276 | 3.2 | 6.4 | 0.00 | 0.15 | 0.00 | 90 | 1018.7 |
| 20260502023603 | 7 | 282 | 3.2 | 6.4 | 0.00 | 0.15 | 0.00 | 90 | 1018.9 |
| 20260502022703 | 7 | 290 | 1.6 | 3.2 | 0.00 | 0.15 | 0.00 | 90 | 1018.8 |
| 20260502021803 | 7 | 290 | 1.6 | 3.2 | 0.00 | 0.15 | 0.00 | 89 | 1018.8 |
| 20260502021117 | 8 | 285 | 3.2 | 6.4 | 0.00 | 0.15 | 0.00 | 89 | 1018.9 |
| 20260502020003 | 8 | 270 | 4.8 | 8.0 | 0.00 | 0.15 | 0.00 | 90 | 1019.0 |
| 20260502015403 | 8 | 266 | 3.2 | 8.0 | 0.00 | 0.15 | 0.00 | 90 | 1019.0 |
| 20260502014503 | 8 | 285 | 3.2 | 4.8 | 0.00 | 0.15 | 0.00 | 90 | 1019.2 |
| 20260502013603 | 8 | 282 | 4.8 | 6.4 | 0.00 | 0.15 | 0.00 | 89 | 1019.2 |
| 20260502012703 | 8 | 280 | 3.2 | 6.4 | 0.00 | 0.15 | 0.00 | 90 | 1019.2 |
| 20260502012017 | 8 | 275 | 3.2 | 6.4 | 0.00 | 0.15 | 0.00 | 90 | 1019.4 |
| 20260502011116 | 8 | 287 | 3.2 | 4.8 | 0.00 | 0.15 | 0.00 | 90 | 1019.4 |
| 20260502010003 | 8 | 291 | 1.6 | 4.8 | 0.00 | 0.15 | 0.00 | 89 | 1019.5 |
| 20260502005403 | 8 | 293 | 3.2 | 4.8 | 0.00 | 0.15 | 0.00 | 89 | 1019.5 |
| 20260502004718 | 8 | 284 | 3.2 | 4.8 | 0.00 | 0.15 | 0.00 | 88 | 1019.5 |
| 20260502003603 | 8 | 274 | 3.2 | 4.8 | 0.00 | 0.15 | 0.00 | 88 | 1019.7 |
| 20260502002703 | 8 | 280 | 1.6 | 3.2 | 0.00 | 0.15 | 0.00 | 88 | 1019.8 |
| 20260502001803 | 8 | 278 | 1.6 | 3.2 | 0.00 | 0.15 | 0.00 | 89 | 1019.7 |
| 20260502000903 | 8 | 284 | 1.6 | 3.2 | 0.00 | 0.15 | 0.00 | 89 | 1019.9 |
| 20260502000003 | 8 | 285 | 1.6 | 1.6 | 0.00 | 0.15 | 0.00 | 89 | 1019.8 |
| 20260501235403 | 8 | 288 | 1.6 | 1.6 | 0.00 | 0.15 | 0.00 | 88 | 1019.9 |
| 20260501234718 | 9 | 287 | 1.6 | 3.2 | 0.00 | 0.15 | 0.00 | 88 | 1020.0 |
| 20260501233603 | 10 | 285 | 1.6 | 4.8 | 0.00 | 0.15 | 0.00 | 87 | 1020.1 |
| 20260501232703 | 10 | 279 | 3.2 | 6.4 | 0.00 | 0.15 | 0.00 | 87 | 1020.2 |
| 20260501231803 | 10 | 276 | 3.2 | 3.2 | 0.00 | 0.15 | 0.00 | 87 | 1020.3 |
| 20260501230903 | 10 | 279 | 3.2 | 3.2 | 0.00 | 0.15 | 0.00 | 87 | 1020.2 |
| 20260501230003 | 10 | 266 | 3.2 | 4.8 | 0.00 | 0.15 | 0.00 | 88 | 1020.3 |
| 20260501225403 | 10 | 276 | 3.2 | 4.8 | 0.00 | 0.15 | 0.15 | 88 | 1020.3 |
| 20260501224718 | 9 | 283 | 3.2 | 4.8 | 0.00 | 0.15 | 0.15 | 89 | 1020.3 |
| 20260501223603 | 9 | 277 | 1.6 | 4.8 | 0.00 | 0.15 | 0.15 | 88 | 1020.2 |
| 20260501222703 | 10 | 271 | 1.6 | 3.2 | 0.00 | 0.15 | 0.15 | 88 | 1020.1 |
| 20260501221803 | 10 | 271 | 1.6 | 3.2 | 0.00 | 0.15 | 0.15 | 88 | 1020.1 |
| 20260501220903 | 10 | 284 | 1.6 | 3.2 | 0.00 | 0.15 | 0.15 | 88 | 1020.1 |
| 20260501220003 | 10 | 278 | 3.2 | 3.2 | 0.00 | 0.15 | 0.15 | 88 | 1020.1 |
| 20260501215403 | 10 | 280 | 1.6 | 3.2 | 0.00 | 0.15 | 0.15 | 88 | 1020.1 |
| 20260501214503 | 10 | 281 | 1.6 | 3.2 | 0.00 | 0.15 | 0.15 | 88 | 1020.1 |
| 20260501213603 | 10 | 286 | 1.6 | 3.2 | 0.00 | 0.15 | 0.15 | 87 | 1020.1 |
| 20260501212703 | 10 | 273 | 3.2 | 6.4 | 0.00 | 0.15 | 0.15 | 87 | 1020.1 |
| 20260501211803 | 10 | 275 | 3.2 | 6.4 | 0.00 | 0.15 | 0.15 | 88 | 1020.0 |
| 20260501210903 | 10 | 277 | 1.6 | 4.8 | 0.00 | 0.15 | 0.15 | 88 | 1020.1 |
| 20260501210003 | 10 | 246 | 1.6 | 1.6 | 0.00 | 0.15 | 0.15 | 88 | 1020.1 |
| 20260501205403 | 10 | 236 | 0.0 | 1.6 | 0.00 | 0.15 | 0.15 | 88 | 1020.0 |
| 20260501204503 | 11 | 238 | 1.6 | 3.2 | 0.00 | 0.15 | 0.15 | 87 | 1020.0 |
| 20260501203603 | 11 | 238 | 1.6 | 3.2 | 0.00 | 0.15 | 0.15 | 88 | 1020.0 |
| 20260501202703 | 11 | 250 | 1.6 | 3.2 | 0.00 | 0.15 | 0.15 | 88 | 1020.0 |
| 20260501201803 | 11 | 261 | 1.6 | 4.8 | 0.00 | 0.15 | 0.15 | 88 | 1019.9 |
| 20260501200903 | 11 | 266 | 1.6 | 3.2 | 0.00 | 0.15 | 0.15 | 88 | 1019.9 |
| 20260501200003 | 11 | 253 | 1.6 | 1.6 | 0.00 | 0.15 | 0.15 | 87 | 1019.9 |
| 20260501195617 | 11 | 253 | 1.6 | 1.6 | 0.00 | 0.15 | 0.15 | 87 | 1020.0 |
| 20260501194503 | 12 | 256 | 1.6 | 1.6 | 0.00 | 0.15 | 0.15 | 86 | 1019.9 |
| 20260501193603 | 12 | 259 | 0.0 | 1.6 | 0.00 | 0.15 | 0.15 | 85 | 1019.8 |
| 20260501192703 | 12 | 261 | 0.0 | 0.0 | 0.00 | 0.15 | 0.15 | 84 | 1019.9 |
| 20260501191803 | 13 | 254 | 1.6 | 3.2 | 0.00 | 0.15 | 0.15 | 84 | 1019.9 |
| 20260501190903 | 13 | 267 | 1.6 | 4.8 | 0.00 | 0.15 | 0.15 | 84 | 1019.9 |
| 20260501190003 | 13 | 256 | 3.2 | 4.8 | 0.00 | 0.15 | 0.15 | 83 | 1019.9 |
| 20260501185403 | 13 | 271 | 3.2 | 6.4 | 0.00 | 0.15 | 0.15 | 83 | 1019.8 |
| 20260501184504 | 13 | 263 | 4.8 | 9.7 | 0.00 | 0.15 | 0.15 | 84 | 1019.7 |
| 20260501183603 | 14 | 247 | 1.6 | 1.6 | 0.00 | 0.15 | 0.15 | 83 | 1019.8 |
| 20260501182703 | 14 | 231 | 1.6 | 4.8 | 0.00 | 0.15 | 0.15 | 84 | 1019.7 |
| 20260501181803 | 14 | 243 | 3.2 | 6.4 | 0.00 | 0.15 | 0.15 | 83 | 1019.7 |
| 20260501180903 | 14 | 244 | 3.2 | 8.0 | 0.00 | 0.15 | 0.15 | 84 | 1019.7 |
| 20260501180217 | 14 | 258 | 4.8 | 8.0 | 0.00 | 0.15 | 0.15 | 83 | 1019.7 |
| 20260501175617 | 14 | 249 | 4.8 | 6.4 | 0.00 | 0.15 | 0.15 | 83 | 1019.6 |
| 20260501174503 | 14 | 237 | 4.8 | 12.9 | 0.00 | 0.15 | 0.15 | 84 | 1019.5 |
| 20260501173817 | 14 | 248 | 8.0 | 12.9 | 0.00 | 0.15 | 0.15 | 85 | 1019.6 |
| 20260501172916 | 14 | 250 | 6.4 | 9.7 | 0.00 | 0.15 | 0.15 | 86 | 1019.7 |
| 20260501171803 | 13 | 231 | 6.4 | 9.7 | 0.00 | 0.15 | 0.15 | 88 | 1019.8 |
| 20260501170903 | 13 | 231 | 6.4 | 11.3 | 0.00 | 0.15 | 0.15 | 88 | 1019.8 |
| 20260501170004 | 13 | 217 | 4.8 | 9.7 | 0.00 | 0.15 | 0.15 | 88 | 1019.8 |
| 20260501165403 | 13 | 186 | 3.2 | 4.8 | 0.00 | 0.15 | 0.15 | 88 | 1019.8 |
| 20260501164503 | 13 | 198 | 3.2 | 6.4 | 0.00 | 0.15 | 0.15 | 89 | 1019.8 |
| 20260501163603 | 13 | 221 | 4.8 | 8.0 | 0.03 | 0.15 | 0.15 | 89 | 1019.9 |
| 20260501162918 | 13 | 214 | 4.8 | 8.0 | 0.03 | 0.15 | 0.15 | 89 | 1019.9 |
| 20260501161803 | 13 | 204 | 4.8 | 9.7 | 0.03 | 0.15 | 0.15 | 89 | 1020.0 |